Lapse_Rate
3.7 4.5 5.6 5.6 5.8 6.6 7.0 6.9 6.4 6.4 6.5 6.3 6.4 6.2 5.9 6.1 6.3 6.2 5.9 5.9 6.1 5.9 6.1 6.2 6.4 6.6 6.5 6.6 6.5 6.2 6.6 6.5 6.3 6.7 6.2 6.0 5.7 6.1 6.2 6.2 5.7 6.0 6.2
4.4 5.1 5.9 6.1 6.1 6.4 6.7 6.9 6.5 6.4 6.2 6.4 6.2 5.9 5.9 5.9 6.1 5.9 5.7 5.9 6.1 6.1 6.0 6.0 7.0 6.7 7.0 6.7 6.5 6.5 6.9 6.9 6.7 6.7 6.7 6.5 6.3 6.3 6.3 6.2 6.2 6.2 6.1
4.6 5.7 5.7 6.1 6.2 6.6 6.8 6.6 6.2 6.2 6.5 6.4 6.2 6.1 5.9 6.2 6.1 5.7 5.9 6.1 5.9 6.5 6.6 6.7 6.7 6.9 6.9 6.6 6.7 7.0 6.6 6.4 6.5 6.5 6.0 5.7 6.3 6.5 6.5 6.4 6.3 6.2 6.3
4.9 5.7 6.3 6.9 6.9 7.0 7.0 6.3 6.3 6.3 6.3 6.4 6.2 6.4 6.2 6.2 6.0 6.2 6.1 6.4 6.6 6.6 6.6 6.7 6.8 6.9 7.1 7.0 6.7 6.7 6.3 6.0 5.8 5.1 4.8 5.1 6.3 6.1 5.8 5.8 5.8 5.8 6.0
5.0 5.6 6.1 6.8 7.0 7.2 7.0 6.9 6.5 6.8 6.7 6.3 6.2 6.4 6.3 6.2 6.2 6.4 6.1 6.3 6.3 6.3 6.7 6.7 6.7 6.9 7.1 6.8 6.9 6.5 6.5 6.1 5.7 4.8 4.6 4.8 5.0 5.7 5.6 5.6 5.5 5.6 5.7
4.7 5.6 7.3 7.0 7.3 7.4 7.3 7.3 6.9 7.5 7.2 6.5 6.4 6.4 6.4 6.4 6.3 6.4 6.4 6.4 6.3 6.4 6.6 6.4 6.8 6.7 6.9 6.8 6.7 6.5 6.3 6.5 5.5 4.4 4.3 5.0 5.0 5.9 5.9 5.8 5.8 6.0 5.5
4.7 5.9 7.2 7.2 7.7 7.2 7.2 7.3 6.1 5.7 7.0 6.7 6.2 6.3 6.7 6.7 6.4 6.4 6.4 6.7 6.6 6.4 6.4 6.3 6.5 6.7 6.9 6.5 6.4 6.3 6.5 6.0 4.7 4.2 4.4 4.5 5.3 6.0 6.3 6.3 5.9 5.7 5.6
4.2 5.8 7.0 7.3 7.5 7.4 7.0 7.4 8.0 7.4 7.3 6.7 6.5 6.3 6.4 6.7 6.7 6.9 6.5 6.6 6.2 6.1 6.3 6.4 6.6 6.6 6.3 6.4 6.2 6.3 6.6 6.0 5.3 4.5 4.3 4.7 5.8 6.0 5.9 5.5 5.5 5.7 5.7
4.2 4.7 5.8 6.4 7.5 7.2 6.9 6.8 7.0 6.8 6.5 6.3 6.3 6.4 6.6 6.8 6.7 6.3 6.2 6.2 5.9 5.9 6.0 6.2 6.2 6.2 6.2 6.3 6.1 6.6 6.8 6.1 4.8 4.6 4.6 4.3 5.2 5.8 5.4 5.0 5.0 5.3 5.4
3.8 3.8 4.2 4.8 5.3 5.8 6.2 6.4 6.1 6.2 6.4 6.4 6.2 6.6 6.2 6.4 6.5 6.6 5.4 5.8 5.9 5.7 6.1 6.2 6.2 6.1 6.2 6.2 6.1 6.4 6.2 5.7 4.5 4.5 4.1 3.8 4.7 5.1 5.1 5.2 5.2 5.4 5.5
3.8 3.7 3.6 3.3 4.4 5.0 5.5 6.5 6.2 6.5 6.3 6.2 6.1 6.0 4.7 4.4 4.7 4.8 5.5 5.7 5.6 5.5 5.6 5.7 5.9 6.0 6.2 5.9 5.9 6.2 5.4 4.4 4.3 4.4 3.8 4.1 4.8 5.6 5.7 5.5 5.4 5.4 5.4
3.4 3.4 3.3 3.1 3.4 3.8 5.3 5.1 5.3 4.9 4.8 4.6 4.5 4.7 4.2 4.1 4.3 4.6 4.9 5.7 5.4 5.2 5.2 5.4 5.6 5.9 5.4 4.9 4.9 5.1 4.4 4.0 4.0 3.9 3.6 4.0 4.5 5.3 5.5 5.3 5.4 5.6 5.3
3.2 3.4 3.1 3.1 3.5 3.6 3.9 3.7 3.6 3.7 3.9 3.9 4.1 4.3 4.0 3.8 3.6 4.0 4.2 4.3 4.5 4.8 4.3 4.7 4.8 4.9 4.8 4.5 4.4 4.0 4.0 3.8 3.7 3.7 4.0 3.9 4.3 4.8 5.2 5.5 5.6 5.3 4.2
3.1 3.3 3.0 3.0 3.1 3.6 3.7 3.2 3.2 3.1 3.4 3.6 3.9 4.2 3.7 3.0 2.9 3.3 3.3 3.7 3.7 4.0 3.7 3.6 3.5 3.7 3.9 3.9 3.6 3.6 3.9 3.8 3.0 3.0 3.3 3.7 3.9 4.5 5.0 5.3 5.4 4.9 5.1
2.7 3.2 3.1 2.8 2.8 3.1 3.1 2.9 2.9 3.3 3.6 4.0 4.1 4.2 3.8 3.1 2.8 2.9 3.0 3.3 3.5 3.6 3.2 2.8 2.8 2.9 2.8 3.0 3.0 3.0 3.5 3.2 2.7 2.5 2.7 3.2 3.5 3.9 4.3 4.5 4.5 4.3 4.5
3.1 2.8 2.7 2.8 2.8 2.7 2.6 2.8 3.1 3.6 4.3 4.0 4.1 4.2 4.0 3.7 3.3 3.1 3.1 3.3 3.3 3.5 3.2 2.9 3.0 3.4 3.4 3.5 3.7 3.1 3.1 3.2 2.8 2.6 2.4 2.6 3.3 3.5 3.4 3.8 4.6 4.7 4.8
3.1 3.1 2.4 2.5 2.6 2.6 2.5 3.1 3.1 3.5 3.9 3.6 4.0 4.1 4.1 3.9 3.6 3.7 3.3 3.2 3.4 3.5 3.5 3.6 3.6 3.6 3.8 4.0 3.7 3.4 2.8 3.0 3.2 3.0 2.7 2.4 2.7 3.0 3.2 3.4 3.4 3.9 4.4
3.5 2.6 2.8 4.3 2.8 2.4 2.1 2.9 3.2 3.3 3.4 3.6 3.7 4.2 4.6 4.3 4.2 3.7 3.5 3.3 3.7 3.7 3.4 3.3 3.2 3.6 3.2 3.7 3.8 3.5 3.3 3.0 3.1 2.8 2.4 2.3 2.0 2.3 2.3 3.4 3.8 4.1 4.4
3.1 2.8 2.6 2.9 2.4 2.1 1.8 2.4 2.8 3.3 3.0 3.5 3.9 4.2 4.7 4.7 4.5 3.9 3.5 3.5 3.5 3.0 2.8 3.1 2.9 2.8 3.0 3.2 3.7 3.4 3.0 3.1 3.2 4.2 3.3 3.2 3.1 2.8 2.5 2.1 3.2 3.5 4.2
2.8 2.4 2.8 2.5 2.3 1.9 1.7 1.8 2.4 2.6 2.8 3.5 3.6 3.8 4.6 4.4 4.5 3.5 3.6 3.3 3.1 2.4 2.5 2.9 3.0 1.9 1.8 2.1 4.9 3.5 2.8 2.7 2.6 2.7 3.0 2.7 2.3 2.4 2.1 1.9 1.8 2.6 3.6
3.2 2.1 2.1 2.1 1.9 2.1 1.6 1.9 2.4 2.8 2.4 2.8 3.2 4.3 4.9 4.8 4.7 3.7 3.2 3.0 2.4 2.5 2.5 2.6 2.3 2.1 2.4 1.7 2.7 2.8 2.3 1.8 2.0 1.8 1.3 1.3 1.8 2.1 2.3 2.3 2.3 3.0 2.8
2.8 2.7 2.1 2.6 2.1 2.5 2.3 1.6 2.4 2.3 2.3 2.8 3.4 4.0 4.6 5.0 4.9 3.9 3.0 2.5 2.2 2.4 2.4 2.5 2.5 2.1 1.6 1.1 2.4 2.1 3.8 3.3 2.3 1.4 0.9 1.6 1.8 1.6 2.0 2.4 2.0 2.4 2.4
3.2 2.8 2.6 2.4 2.5 2.8 2.5 1.9 1.7 2.2 2.2 2.6 3.1 3.1 4.0 4.8 5.0 4.1 3.5 2.5 2.0 1.9 2.0 2.5 2.2 2.5 2.7 1.4 1.1 2.8 2.7 3.1 1.1 1.1 1.4 1.6 1.8 2.0 1.6 1.3 2.1 2.3 1.9
3.3 3.4 3.0 2.8 2.4 2.7 2.4 2.8 3.1 2.8 3.2 2.8 3.3 3.2 3.9 4.7 4.8 4.7 3.5 2.9 2.3 1.8 1.8 2.0 1.9 2.1 1.9 2.5 1.4 1.1 0.6 1.6 3.6 4.1 2.4 1.5 2.0 2.2 1.4 1.3 1.5 1.6 1.6
3.6 3.2 3.3 2.6 2.4 2.6 2.9 3.1 3.1 2.8 2.7 2.8 2.4 3.4 3.5 3.6 4.4 4.2 3.4 3.0 2.7 2.3 2.1 2.7 2.3 2.3 2.1 2.1 1.9 1.6 1.6 1.0 1.5 2.9 4.3 3.3 2.4 1.9 1.8 1.5 1.0 1.0 1.8
4.5 3.5 3.3 2.4 2.1 1.9 2.6 2.7 3.1 3.2 2.7 2.6 2.5 3.1 3.3 3.5 4.0 4.1 4.0 2.9 3.0 2.6 2.5 2.8 3.0 2.8 2.8 2.4 1.8 2.1 3.1 3.7 3.5 3.5 3.1 3.3 3.1 3.3 2.2 2.2 1.8 1.2 1.6
Wind_Speed
3 6 8 10 8 5 4 4 5 8 12 13 13 15 15 13 12 14 16 15 13 13 13 12 13 15 15 16 17 17 15 14 14 15 14 13 13 12 13 11 12 11 10
6 9 8 10 7 3 4 5 6 9 11 13 13 14 13 12 11 13 14 14 14 13 14 12 13 14 16 16 17 16 15 14 13 13 14 14 13 12 12 11 10 11 10
7 11 9 12 10 4 3 5 7 10 11 11 13 13 12 11 11 12 13 12 13 13 14 12 13 15 16 17 16 16 16 14 14 13 14 10 11 11 12 11 11 11 9
9 11 11 9 8 10 5 7 7 10 10 11 12 13 12 12 12 10 11 13 11 14 14 14 16 16 16 16 15 14 15 15 14 12 10 8 10 11 11 10 10 10 8
6 9 11 10 9 11 11 11 12 10 10 10 12 11 11 11 11 12 13 12 13 13 13 15 14 15 15 14 13 11 12 11 11 10 9 9 8 9 9 9 8 8 7
5 8 11 12 12 14 12 15 14 11 7 8 11 10 10 10 11 11 13 13 14 13 15 13 13 13 13 13 12 9 4 5 9 7 6 7 7 8 7 8 7 5 6
5 7 9 9 12 12 13 15 16 4 1 8 12 11 11 10 11 11 14 13 15 13 12 11 10 12 13 12 9 7 7 10 9 6 4 4 5 7 6 7 6 5 4
5 6 9 11 12 11 15 16 18 12 8 9 12 12 11 11 13 12 13 12 13 11 9 8 8 10 11 9 7 6 6 11 8 6 3 3 4 5 6 5 4 2 2
4 5 5 5 8 7 9 12 12 11 8 10 12 12 11 11 12 13 11 10 10 9 7 7 7 7 7 5 6 5 6 10 8 6 4 3 5 6 5 4 3 1 2
4 2 2 3 6 6 6 7 9 8 8 9 11 10 11 10 10 10 9 8 8 8 7 6 5 5 4 4 4 5 4 8 6 7 4 5 6 6 6 5 4 2 1
4 4 3 2 6 6 7 6 6 7 7 7 8 9 10 8 8 8 5 6 5 5 4 4 3 3 2 3 2 3 5 7 6 5 4 6 6 5 5 5 3 2 2
4 2 2 2 3 4 5 8 7 5 6 6 6 6 6 5 5 3 2 2 1 1 2 3 2 1 2 1 2 2 3 6 7 7 6 9 9 8 6 5 3 1 3
4 4 4 3 4 4 4 5 5 5 4 4 3 3 3 4 3 4 3 3 4 5 3 3 5 4 4 3 4 4 4 5 7 6 7 10 10 9 7 4 2 4 5
6 6 6 5 5 5 4 3 3 3 3 2 2 2 1 1 2 2 3 4 6 7 9 7 6 8 8 8 9 8 5 2 4 8 8 10 10 9 8 6 6 8 7
6 6 6 6 5 6 4 4 3 2 2 2 0 1 4 2 2 3 4 5 6 9 8 7 8 7 6 7 7 7 6 6 7 6 8 10 11 11 10 9 10 12 12
5 6 6 6 7 8 5 5 5 5 3 3 3 7 9 6 4 3 4 5 6 9 9 6 5 4 3 3 3 2 5 6 7 5 6 8 12 14 14 12 11 12 13
5 5 7 7 8 5 6 7 6 7 4 4 7 7 9 9 5 4 4 3 5 5 5 2 2 3 2 1 1 4 1 2 4 7 8 9 12 16 16 16 17 15 15
6 7 6 8 7 6 5 7 7 7 6 7 7 4 4 8 7 5 3 3 3 4 1 2 2 1 1 0 0 1 2 5 6 6 8 9 12 11 13 17 13 11 11
9 7 7 7 7 7 5 5 6 5 5 6 5 5 7 9 6 6 3 2 1 2 3 2 2 1 1 1 1 1 1 1 3 6 6 9 12 11 11 7 7 8 8
9 8 6 5 5 6 3 2 2 2 3 5 6 4 5 5 8 6 3 2 0 2 2 1 2 3 2 1 1 3 1 2 3 3 5 7 8 9 5 6 8 9 11
9 9 9 8 6 5 2 3 2 2 2 2 5 5 7 6 7 7 4 2 1 1 2 2 1 3 4 2 1 1 2 1 3 4 5 5 7 8 8 10 7 5 5
13 11 9 10 7 6 4 3 3 3 2 2 4 6 7 6 8 7 5 3 3 2 2 2 2 0 1 3 2 1 2 2 3 5 3 5 6 8 7 9 6 7 6
13 14 13 12 10 8 6 3 3 3 2 2 1 3 6 9 9 8 8 5 4 3 3 2 2 3 1 2 2 2 2 3 2 2 3 5 6 5 7 9 5 5 6
15 11 11 11 10 8 7 5 5 5 4 4 4 3 3 9 9 9 6 6 5 4 3 2 2 1 2 2 0 2 3 2 0 3 2 3 4 6 6 5 3 5 6
13 13 11 10 9 9 10 9 5 4 4 2 2 4 4 4 7 7 9 7 4 3 3 3 3 3 2 2 2 1 1 2 1 1 3 4 3 1 3 5 5 6 7
11 9 10 10 10 10 11 10 10 9 6 4 3 3 3 3 3 6 7 6 6 5 4 3 3 4 3 2 2 2 1 1 1 1 2 2 3 4 3 4 3 5 7
Wind_Direction
223 166 161 160 159 168 142 129 110 116 115 107 107 106 107 109 109 107 104 107 106 100 98 96 97 99 100 104 101 100 102 105 104 101 97 94 92 89 91 93 91 101 114
129 163 158 156 164 198 134 126 117 117 116 114 106 97 103 103 110 110 108 106 110 105 103 99 97 98 106 101 102 101 104 97 110 105 96 94 94 95 94 91 101 98 103
116 144 162 147 194 182 149 135 120 110 110 114 108 111 107 111 103 99 110 115 108 109 104 101 107 104 102 102 103 100 98 97 98 98 95 87 97 97 96 95 95 98 97
117 138 157 178 184 137 141 116 100 96 105 106 105 110 109 101 100 106 114 109 118 108 104 111 104 105 103 104 103 101 105 100 99 94 89 87 101 101 102 98 95 95 98
117 134 155 151 141 137 127 113 89 92 97 108 111 110 107 105 106 109 110 115 111 107 114 108 109 104 106 105 101 106 107 95 107 102 103 106 104 108 107 104 96 93 94
105 124 142 143 138 119 120 109 78 70 112 118 120 109 112 107 102 103 109 108 105 108 105 111 110 111 102 93 89 98 113 138 118 111 111 117 116 120 130 112 112 116 115
123 128 137 140 133 137 133 123 92 97 87 118 111 97 97 96 99 89 86 90 97 98 103 109 118 105 94 83 78 74 100 127 123 123 116 102 115 122 119 112 108 97 104
118 120 137 146 149 150 140 129 136 154 160 122 97 92 94 89 85 81 85 85 88 98 105 108 97 85 79 71 61 43 150 142 132 121 121 104 114 102 89 103 119 130 91
115 112 135 145 156 134 119 120 129 132 122 96 93 92 98 93 95 87 85 89 100 108 112 110 95 83 76 70 51 49 116 143 137 140 152 157 174 146 143 156 156 143 1
130 114 106 84 105 105 121 108 111 106 101 108 92 90 87 88 93 95 79 95 106 113 114 112 99 85 72 55 38 47 51 143 143 152 167 181 179 176 183 174 171 179 225
141 151 188 150 127 119 114 122 112 105 102 95 101 88 72 74 81 78 80 94 101 99 101 90 84 78 64 56 41 63 78 145 163 171 191 206 214 211 197 180 177 185 329
157 166 139 172 99 102 102 91 92 80 79 81 86 82 87 77 78 71 55 49 29 29 17 17 345 321 131 166 203 154 145 169 184 190 194 200 208 212 207 201 194 93 291
162 156 175 172 164 157 111 111 109 89 93 93 85 86 92 77 42 32 341 349 331 327 331 336 318 307 293 257 254 238 204 192 199 200 205 205 212 219 218 205 204 217 214
163 172 171 179 177 156 130 132 124 113 106 103 146 145 139 27 355 331 300 316 326 324 319 324 312 302 298 288 262 256 237 185 185 202 206 214 223 228 228 215 213 233 227
166 166 176 167 172 167 144 154 151 148 140 164 155 253 220 256 287 292 300 309 301 295 291 296 283 285 282 284 274 246 228 198 188 196 204 216 228 236 232 224 221 228 224
168 173 167 179 176 173 156 173 172 178 200 243 264 261 248 238 236 265 296 305 300 288 294 290 270 277 289 304 349 285 247 207 191 208 212 221 235 239 240 238 232 244 249
186 178 176 179 175 182 167 173 183 197 211 265 263 271 243 227 226 255 301 300 289 300 278 350 319 291 311 38 38 56 105 204 211 209 217 228 235 239 242 240 233 227 226
181 184 179 190 181 178 175 172 190 199 208 249 252 244 234 227 221 250 266 281 300 311 354 15 5 40 321 224 197 110 155 177 213 233 239 241 249 255 259 255 252 235 235
175 179 184 188 186 179 181 182 198 213 222 242 249 227 249 236 201 209 255 266 275 331 17 348 21 65 150 346 307 327 3 263 254 253 244 256 260 266 271 309 262 265 290
174 172 188 182 187 178 153 156 179 206 244 227 213 209 208 195 188 200 205 188 247 2 333 351 4 32 68 43 37 64 337 265 266 253 241 253 268 274 324 305 290 272 256
172 168 187 174 191 162 163 154 162 198 182 231 218 201 216 210 184 200 206 191 220 239 278 301 17 360 36 47 109 51 19 345 287 266 282 283 294 302 316 298 282 253 270
182 181 180 192 176 191 186 170 156 161 170 158 193 217 226 212 210 196 191 195 191 206 234 246 174 106 358 31 117 63 1 319 279 262 275 285 289 294 292 285 290 297 284
187 185 184 188 186 188 195 130 95 91 87 106 197 209 216 203 215 203 211 200 194 194 216 233 191 157 213 57 50 142 98 253 330 311 286 278 283 298 292 275 285 317 308
193 188 179 185 184 190 169 193 172 178 166 192 189 188 193 197 211 210 206 209 201 209 199 218 193 153 131 221 181 63 76 125 248 326 302 292 276 294 298 286 304 302 324
181 187 189 177 186 182 188 193 196 185 183 168 149 179 197 211 219 196 200 209 198 221 212 191 180 191 184 170 197 169 89 85 116 104 300 319 311 322 323 315 313 311 306
183 179 183 180 191 187 188 194 197 201 192 171 168 196 207 203 215 218 211 216 223 221 217 215 205 191 202 165 171 172 173 176 186 192 268 286 285 307 322 321 332 309 292